THOR ABLESTAR DEB, 967

Orbit data source: Space-Track

THOR ABLESTAR DEB, 967 is space debris in LEO originally from a launch on Sun, 13 Dec 1964 UTC launched from the Air Force Western Test Range (AFWTR). Debris objects in space refer to the collection of defunct objects orbiting the Earth. Examples of debris include non-operational satellites, rocket bodies, and fragments generated from explosions, collisions, or faulty payload assembly.

Loading next visibility...
Identifier
967, 1964-083F
Orbit
LEO
Last TLE update
16 hours ago
Origin
Manufacturer
Unknown
Mission
Spacecraft
Bus & Motor
Unknown
Mass
Unknown
Launch date (UTC)
1964-12-13 (60 years ago)
Launch vehicle
Unknown
Launch site
Air Force Western Test Range (AFWTR)
Object type
Payload
Rocket body
Debris
Shape & HBR
Unknown
Radar Cross Section
Small (<0.1 m²)

Expand to show TLE details & history

TLE from 16 hours ago
0 THOR ABLESTAR DEB
1 00967U 64083F   25128.66149777  .00000356  00000-0  41196-3 0  9996
2 00967  89.9523 175.7631 0023479 152.0200 335.9025 13.67192938   708
Epoch: 2025-05-08T15:52Z
Definitive object data (Epoch: 2025-05-08T15:52:33.407Z)
Latitude
52.28299°
Longitude
-109.16624°
Altitude
1,002.399 km
Speed
7.363 km/s
True Right ascension
23h 42m 48s
True Declination
52° 07' 19"
Sunlit
Object was in daylight at TLE epoch
Visualization TLE readout
Latitude
-17.07163°
Longitude
-109.09364°
Altitude
1,004.517 km
Speed
7.354 km/s
Apparent Right ascension
01h 29m 30s
Apparent Declination
-31° 46' 09"
Sunlit
Object is in daylight
Visualization observer readout
Local Sidereal Time
16:10:16
Azimuth
88.652° E
Elevation
-56.715°
Doppler factor
1
Orbital elements
Apogee altitude
1,024.03 km
Perigee altitude
989.352 km
Semi-major axis
7,384.828 km
Eccentricity
0.0023479
Inclination
89.9523°
RAAN
175.7631°
Arg. of periapsis
152.02°
True anomaly
335.79235°
Mean anomaly
335.9025°
Eccentric anomaly
335.84746°
Mean motion
3.42005 °/min
BSTAR
0.00041196
Orbital period
105.26 mins
Loading maneuver chart data...
Loading SW <> Apogee altitude chart data...

THOR ABLESTAR DEB Visibility forecast

Observer location: undefined°, undefined°

Span
Click to sort rows by Start time (UTC) header in descending order
Start Az.
Max El. time (UTC)
Max El. Az.
Max El.
End time (UTC)
End Az.
10 mins2025-05-09 14:41:10.988Z21.674° NNE2025-05-09 14:46:10.988Z86.196° E31.842°2025-05-09 14:51:10.988Z149.759° SSE
9 mins2025-05-09 16:27:10.988Z333.287° NNW2025-05-09 16:31:10.988Z281.628° WNW27.038°2025-05-09 16:36:10.988Z225.063° WSW
9 mins2025-05-10 02:31:10.988Z129.202° SE2025-05-10 02:35:10.988Z75.681° E28.458°2025-05-10 02:40:10.988Z18.995° NNE
9 mins2025-05-10 04:16:10.988Z219.158° SW2025-05-10 04:20:10.988Z276.988° WNW31.048°2025-05-10 04:25:10.988Z337.942° N
|